owner,sensor,date,latitude,longitude,sea_surface_height_above_sea_level,qcFlag 
TCOON,ioos:station:TCOON:524:1,2014-01-01T00:06:00Z,29.8672,-93.9310,1.639,1111122 
TCOON,ioos:station:TCOON:524:1,2014-01-01T00:36:00Z,29.8672,-93.9310,1.613,1111122 
TCOON,ioos:station:TCOON:524:1,2014-01-01T01:06:00Z,29.8672,-93.9310,1.613,1111122 
TCOON,ioos:station:TCOON:524:1,2014-01-01T01:36:00Z,29.8672,-93.9310,1.582,1111122 
TCOON,ioos:station:TCOON:524:1,2014-01-01T02:06:00Z,29.8672,-93.9310,1.614,1111122 
TCOON,ioos:station:TCOON:524:1,2014-01-01T02:36:00Z,29.8672,-93.9310,1.63,1111122 
TCOON,ioos:station:TCOON:524:1,2014-01-01T03:00:00Z,29.8672,-93.9310,1.644,1111122 
TCOON,ioos:station:TCOON:524:1,2014-01-01T03:36:00Z,29.8672,-93.9310,1.649,1111122 
TCOON,ioos:station:TCOON:524:1,2014-01-01T04:06:00Z,29.8672,-93.9310,1.636,1111122 
TCOON,ioos:station:TCOON:524:1,2014-01-01T04:36:00Z,29.8672,-93.9310,1.653,1111122 
TCOON,ioos:station:TCOON:524:1,2014-01-01T05:06:00Z,29.8672,-93.9310,1.663,1111122 
TCOON,ioos:station:TCOON:524:1,2014-01-01T05:36:00Z,29.8672,-93.9310,1.669,1111122 
TCOON,ioos:station:TCOON:524:1,2014-01-01T06:06:00Z,29.8672,-93.9310,1.666,1111122 
TCOON,ioos:station:TCOON:524:1,2014-01-01T06:36:00Z,29.8672,-93.9310,1.715,1111122 
TCOON,ioos:station:TCOON:524:1,2014-01-01T07:06:00Z,29.8672,-93.9310,1.712,1111122 
TCOON,ioos:station:TCOON:524:1,2014-01-01T07:36:00Z,29.8672,-93.9310,1.641,1111122 
TCOON,ioos:station:TCOON:524:1,2014-01-01T08:06:00Z,29.8672,-93.9310,1.771,1111122 
TCOON,ioos:station:TCOON:524:1,2014-01-01T08:36:00Z,29.8672,-93.9310,1.739,1111122 
TCOON,ioos:station:TCOON:524:1,2014-01-01T09:06:00Z,29.8672,-93.9310,1.732,1111122 
TCOON,ioos:station:TCOON:524:1,2014-01-01T09:36:00Z,29.8672,-93.9310,1.76,1111122 
TCOON,ioos:station:TCOON:524:1,2014-01-01T10:06:00Z,29.8672,-93.9310,1.717,1111122 
TCOON,ioos:station:TCOON:524:1,2014-01-01T10:36:00Z,29.8672,-93.9310,1.704,1111122 
TCOON,ioos:station:TCOON:524:1,2014-01-01T11:06:00Z,29.8672,-93.9310,1.679,1111122 
TCOON,ioos:station:TCOON:524:1,2014-01-01T11:36:00Z,29.8672,-93.9310,1.635,1111122 
TCOON,ioos:station:TCOON:524:1,2014-01-01T12:06:00Z,29.8672,-93.9310,1.603,1111122 
TCOON,ioos:station:TCOON:524:1,2014-01-01T12:36:00Z,29.8672,-93.9310,1.56,1111122 
TCOON,ioos:station:TCOON:524:1,2014-01-01T13:06:00Z,29.8672,-93.9310,1.46,1111122 
TCOON,ioos:station:TCOON:524:1,2014-01-01T13:36:00Z,29.8672,-93.9310,1.465,1111122 
TCOON,ioos:station:TCOON:524:1,2014-01-01T14:06:00Z,29.8672,-93.9310,1.431,1111122 
TCOON,ioos:station:TCOON:524:1,2014-01-01T14:36:00Z,29.8672,-93.9310,1.396,1111122 
TCOON,ioos:station:TCOON:524:1,2014-01-01T15:06:00Z,29.8672,-93.9310,1.365,1111122 
TCOON,ioos:station:TCOON:524:1,2014-01-01T15:36:00Z,29.8672,-93.9310,1.345,1111122 
TCOON,ioos:station:TCOON:524:1,2014-01-01T16:06:00Z,29.8672,-93.9310,1.316,1111122 
TCOON,ioos:station:TCOON:524:1,2014-01-01T16:36:00Z,29.8672,-93.9310,1.323,1111122 
TCOON,ioos:station:TCOON:524:1,2014-01-01T17:06:00Z,29.8672,-93.9310,1.327,1111122 
TCOON,ioos:station:TCOON:524:1,2014-01-01T17:36:00Z,29.8672,-93.9310,1.373,1111122 
TCOON,ioos:station:TCOON:524:1,2014-01-01T18:06:00Z,29.8672,-93.9310,1.408,1111122 
TCOON,ioos:station:TCOON:524:1,2014-01-01T18:36:00Z,29.8672,-93.9310,1.437,1111122 
TCOON,ioos:station:TCOON:524:1,2014-01-01T19:06:00Z,29.8672,-93.9310,1.465,1111122 
TCOON,ioos:station:TCOON:524:1,2014-01-01T19:36:00Z,29.8672,-93.9310,1.468,1111122 
TCOON,ioos:station:TCOON:524:1,2014-01-01T20:06:00Z,29.8672,-93.9310,1.583,1111122 
TCOON,ioos:station:TCOON:524:1,2014-01-01T20:36:00Z,29.8672,-93.9310,1.547,1111122 
TCOON,ioos:station:TCOON:524:1,2014-01-01T21:06:00Z,29.8672,-93.9310,1.649,1111122 
TCOON,ioos:station:TCOON:524:1,2014-01-01T21:36:00Z,29.8672,-93.9310,1.668,1111122 
TCOON,ioos:station:TCOON:524:1,2014-01-01T22:06:00Z,29.8672,-93.9310,1.656,1111122 
TCOON,ioos:station:TCOON:524:1,2014-01-01T22:36:00Z,29.8672,-93.9310,1.678,1111122 
TCOON,ioos:station:TCOON:524:1,2014-01-01T23:06:00Z,29.8672,-93.9310,1.686,1111122 
TCOON,ioos:station:TCOON:524:1,2014-01-01T23:36:00Z,29.8672,-93.9310,1.689,1111122 
TCOON,ioos:station:TCOON:524:1,2014-01-02T00:06:00Z,29.8672,-93.9310,1.717,1111122 
TCOON,ioos:station:TCOON:524:1,2014-01-02T00:36:00Z,29.8672,-93.9310,1.725,1111122 
TCOON,ioos:station:TCOON:524:1,2014-01-02T01:06:00Z,29.8672,-93.9310,1.739,1111122 
TCOON,ioos:station:TCOON:524:1,2014-01-02T01:36:00Z,29.8672,-93.9310,1.719,1111122 
TCOON,ioos:station:TCOON:524:1,2014-01-02T02:06:00Z,29.8672,-93.9310,1.744,1111122 
TCOON,ioos:station:TCOON:524:1,2014-01-02T02:36:00Z,29.8672,-93.9310,1.741,1111122 
TCOON,ioos:station:TCOON:524:1,2014-01-02T03:06:00Z,29.8672,-93.9310,1.757,1111122 
TCOON,ioos:station:TCOON:524:1,2014-01-02T03:36:00Z,29.8672,-93.9310,1.753,1111122 
TCOON,ioos:station:TCOON:524:1,2014-01-02T04:06:00Z,29.8672,-93.9310,1.724,1111122 
TCOON,ioos:station:TCOON:524:1,2014-01-02T04:36:00Z,29.8672,-93.9310,1.733,1111122 
TCOON,ioos:station:TCOON:524:1,2014-01-02T05:06:00Z,29.8672,-93.9310,1.766,1111122 
TCOON,ioos:station:TCOON:524:1,2014-01-02T06:00:00Z,29.8672,-93.9310,1.77,1111122 
TCOON,ioos:station:TCOON:524:1,2014-01-02T06:36:00Z,29.8672,-93.9310,1.764,1111122 
TCOON,ioos:station:TCOON:524:1,2014-01-02T07:06:00Z,29.8672,-93.9310,1.772,1111122 
TCOON,ioos:station:TCOON:524:1,2014-01-02T07:36:00Z,29.8672,-93.9310,1.772,1111122 
TCOON,ioos:station:TCOON:524:1,2014-01-02T08:06:00Z,29.8672,-93.9310,1.77,1111122 
TCOON,ioos:station:TCOON:524:1,2014-01-02T08:36:00Z,29.8672,-93.9310,1.79,1111122 
TCOON,ioos:station:TCOON:524:1,2014-01-02T09:06:00Z,29.8672,-93.9310,1.784,1111122 
TCOON,ioos:station:TCOON:524:1,2014-01-02T09:36:00Z,29.8672,-93.9310,1.765,1111122 
TCOON,ioos:station:TCOON:524:1,2014-01-02T10:06:00Z,29.8672,-93.9310,1.761,1111122 
TCOON,ioos:station:TCOON:524:1,2014-01-02T10:36:00Z,29.8672,-93.9310,1.738,1111122 
TCOON,ioos:station:TCOON:524:1,2014-01-02T11:06:00Z,29.8672,-93.9310,1.704,1111122 
TCOON,ioos:station:TCOON:524:1,2014-01-02T11:36:00Z,29.8672,-93.9310,1.664,1111122 
TCOON,ioos:station:TCOON:524:1,2014-01-02T12:06:00Z,29.8672,-93.9310,1.637,1111122 
TCOON,ioos:station:TCOON:524:1,2014-01-02T12:36:00Z,29.8672,-93.9310,1.558,1111122 
TCOON,ioos:station:TCOON:524:1,2014-01-02T13:06:00Z,29.8672,-93.9310,1.485,1111122 
TCOON,ioos:station:TCOON:524:1,2014-01-02T13:36:00Z,29.8672,-93.9310,1.447,1111122 
TCOON,ioos:station:TCOON:524:1,2014-01-02T14:06:00Z,29.8672,-93.9310,1.363,1111122 
TCOON,ioos:station:TCOON:524:1,2014-01-02T14:36:00Z,29.8672,-93.9310,1.338,1111122 
TCOON,ioos:station:TCOON:524:1,2014-01-02T15:06:00Z,29.8672,-93.9310,1.214,1111122 
TCOON,ioos:station:TCOON:524:1,2014-01-02T15:36:00Z,29.8672,-93.9310,1.204,1111122 
TCOON,ioos:station:TCOON:524:1,2014-01-02T16:06:00Z,29.8672,-93.9310,1.184,1111122 
TCOON,ioos:station:TCOON:524:1,2014-01-02T16:30:00Z,29.8672,-93.9310,1.166,1111122 
TCOON,ioos:station:TCOON:524:1,2014-01-02T17:06:00Z,29.8672,-93.9310,1.133,1111122 
TCOON,ioos:station:TCOON:524:1,2014-01-02T17:36:00Z,29.8672,-93.9310,1.113,1111122 
TCOON,ioos:station:TCOON:524:1,2014-01-02T18:06:00Z,29.8672,-93.9310,1.095,1111122 
TCOON,ioos:station:TCOON:524:1,2014-01-02T18:36:00Z,29.8672,-93.9310,1.103,1111122 
TCOON,ioos:station:TCOON:524:1,2014-01-02T19:00:00Z,29.8672,-93.9310,1.114,1111122 
TCOON,ioos:station:TCOON:524:1,2014-01-02T19:36:00Z,29.8672,-93.9310,1.147,1111122 
TCOON,ioos:station:TCOON:524:1,2014-01-02T20:06:00Z,29.8672,-93.9310,1.196,1111122 
TCOON,ioos:station:TCOON:524:1,2014-01-02T20:36:00Z,29.8672,-93.9310,1.232,1111122 
TCOON,ioos:station:TCOON:524:1,2014-01-02T21:00:00Z,29.8672,-93.9310,1.226,1111122 
TCOON,ioos:station:TCOON:524:1,2014-01-02T21:36:00Z,29.8672,-93.9310,1.265,1111122 
TCOON,ioos:station:TCOON:524:1,2014-01-02T22:36:00Z,29.8672,-93.9310,1.326,1111122 
TCOON,ioos:station:TCOON:524:1,2014-01-02T23:06:00Z,29.8672,-93.9310,1.343,1111122 
TCOON,ioos:station:TCOON:524:1,2014-01-02T23:36:00Z,29.8672,-93.9310,1.346,1111122 
TCOON,ioos:station:TCOON:524:1,2014-01-03T00:06:00Z,29.8672,-93.9310,1.357,1111122 
TCOON,ioos:station:TCOON:524:1,2014-01-03T00:36:00Z,29.8672,-93.9310,1.368,1111122 
TCOON,ioos:station:TCOON:524:1,2014-01-03T01:06:00Z,29.8672,-93.9310,1.365,1111122 
TCOON,ioos:station:TCOON:524:1,2014-01-03T01:36:00Z,29.8672,-93.9310,1.37,1111122 
TCOON,ioos:station:TCOON:524:1,2014-01-03T02:06:00Z,29.8672,-93.9310,1.395,1111122 
TCOON,ioos:station:TCOON:524:1,2014-01-03T02:36:00Z,29.8672,-93.9310,1.356,1111122 
TCOON,ioos:station:TCOON:524:1,2014-01-03T03:06:00Z,29.8672,-93.9310,1.367,1111122 
TCOON,ioos:station:TCOON:524:1,2014-01-03T03:36:00Z,29.8672,-93.9310,1.293,1111122 
TCOON,ioos:station:TCOON:524:1,2014-01-03T04:00:00Z,29.8672,-93.9310,1.285,1111122 
TCOON,ioos:station:TCOON:524:1,2014-01-03T09:54:00Z,29.8672,-93.9310,1.428,1111122 
TCOON,ioos:station:TCOON:524:1,2014-01-03T10:06:00Z,29.8672,-93.9310,1.424,1111122 
TCOON,ioos:station:TCOON:524:1,2014-01-03T10:36:00Z,29.8672,-93.9310,1.431,1111122 
TCOON,ioos:station:TCOON:524:1,2014-01-03T11:06:00Z,29.8672,-93.9310,1.433,1111122 
TCOON,ioos:station:TCOON:524:1,2014-01-03T11:36:00Z,29.8672,-93.9310,1.452,1111122 
TCOON,ioos:station:TCOON:524:1,2014-01-03T12:06:00Z,29.8672,-93.9310,1.45,1111122 
TCOON,ioos:station:TCOON:524:1,2014-01-03T12:36:00Z,29.8672,-93.9310,1.434,1111122 
TCOON,ioos:station:TCOON:524:1,2014-01-03T13:06:00Z,29.8672,-93.9310,1.41,1111122 
TCOON,ioos:station:TCOON:524:1,2014-01-03T13:36:00Z,29.8672,-93.9310,1.372,1111122 
TCOON,ioos:station:TCOON:524:1,2014-01-03T14:06:00Z,29.8672,-93.9310,1.325,1111122 
TCOON,ioos:station:TCOON:524:1,2014-01-03T14:36:00Z,29.8672,-93.9310,1.258,1111122 
TCOON,ioos:station:TCOON:524:1,2014-01-03T15:06:00Z,29.8672,-93.9310,1.191,1111122 
TCOON,ioos:station:TCOON:524:1,2014-01-03T15:36:00Z,29.8672,-93.9310,1.148,1111122 
TCOON,ioos:station:TCOON:524:1,2014-01-03T16:06:00Z,29.8672,-93.9310,1.159,1111122 
TCOON,ioos:station:TCOON:524:1,2014-01-03T16:36:00Z,29.8672,-93.9310,1.116,1111122 
TCOON,ioos:station:TCOON:524:1,2014-01-03T17:06:00Z,29.8672,-93.9310,1.159,1111122 
TCOON,ioos:station:TCOON:524:1,2014-01-03T17:36:00Z,29.8672,-93.9310,1.113,1111122 
TCOON,ioos:station:TCOON:524:1,2014-01-03T18:06:00Z,29.8672,-93.9310,1.122,1111122 
TCOON,ioos:station:TCOON:524:1,2014-01-03T18:36:00Z,29.8672,-93.9310,1.156,1111122 
TCOON,ioos:station:TCOON:524:1,2014-01-03T19:06:00Z,29.8672,-93.9310,1.215,1111122 
TCOON,ioos:station:TCOON:524:1,2014-01-03T19:36:00Z,29.8672,-93.9310,1.307,1111122 
TCOON,ioos:station:TCOON:524:1,2014-01-03T20:06:00Z,29.8672,-93.9310,1.321,1111122 
TCOON,ioos:station:TCOON:524:1,2014-01-03T20:36:00Z,29.8672,-93.9310,1.334,1111122 
TCOON,ioos:station:TCOON:524:1,2014-01-03T21:06:00Z,29.8672,-93.9310,1.309,1111122 
TCOON,ioos:station:TCOON:524:1,2014-01-03T21:36:00Z,29.8672,-93.9310,1.412,1111122 
TCOON,ioos:station:TCOON:524:1,2014-01-03T22:06:00Z,29.8672,-93.9310,1.447,1111122 
TCOON,ioos:station:TCOON:524:1,2014-01-03T22:36:00Z,29.8672,-93.9310,1.485,1111122 
TCOON,ioos:station:TCOON:524:1,2014-01-03T23:06:00Z,29.8672,-93.9310,1.484,1111122 
TCOON,ioos:station:TCOON:524:1,2014-01-03T23:36:00Z,29.8672,-93.9310,1.494,1111122 
TCOON,ioos:station:TCOON:524:1,2014-01-04T00:06:00Z,29.8672,-93.9310,1.504,1111122 
TCOON,ioos:station:TCOON:524:1,2014-01-04T00:36:00Z,29.8672,-93.9310,1.534,1111122 
TCOON,ioos:station:TCOON:524:1,2014-01-04T01:00:00Z,29.8672,-93.9310,1.56,1111122 
TCOON,ioos:station:TCOON:524:1,2014-01-04T01:36:00Z,29.8672,-93.9310,1.564,1111122 
TCOON,ioos:station:TCOON:524:1,2014-01-04T02:00:00Z,29.8672,-93.9310,1.586,1111122 
TCOON,ioos:station:TCOON:524:1,2014-01-04T02:36:00Z,29.8672,-93.9310,1.617,1111122 
TCOON,ioos:station:TCOON:524:1,2014-01-04T03:06:00Z,29.8672,-93.9310,1.606,1111122 
TCOON,ioos:station:TCOON:524:1,2014-01-04T03:36:00Z,29.8672,-93.9310,1.632,1111122 
TCOON,ioos:station:TCOON:524:1,2014-01-04T04:18:00Z,29.8672,-93.9310,1.645,1111122 
TCOON,ioos:station:TCOON:524:1,2014-01-04T04:36:00Z,29.8672,-93.9310,1.636,1111122 
TCOON,ioos:station:TCOON:524:1,2014-01-04T05:06:00Z,29.8672,-93.9310,1.656,1111122 
TCOON,ioos:station:TCOON:524:1,2014-01-04T05:36:00Z,29.8672,-93.9310,1.666,1111122 
TCOON,ioos:station:TCOON:524:1,2014-01-04T06:06:00Z,29.8672,-93.9310,1.691,1111122 
TCOON,ioos:station:TCOON:524:1,2014-01-04T06:36:00Z,29.8672,-93.9310,1.702,1111122 
TCOON,ioos:station:TCOON:524:1,2014-01-04T07:30:00Z,29.8672,-93.9310,1.731,1111122 
TCOON,ioos:station:TCOON:524:1,2014-01-04T08:06:00Z,29.8672,-93.9310,1.744,1111122 
TCOON,ioos:station:TCOON:524:1,2014-01-04T08:36:00Z,29.8672,-93.9310,1.753,1111122 
TCOON,ioos:station:TCOON:524:1,2014-01-04T09:06:00Z,29.8672,-93.9310,1.787,1111122 
TCOON,ioos:station:TCOON:524:1,2014-01-04T09:36:00Z,29.8672,-93.9310,1.796,1111122 
TCOON,ioos:station:TCOON:524:1,2014-01-04T10:00:00Z,29.8672,-93.9310,1.789,1111122 
TCOON,ioos:station:TCOON:524:1,2014-01-04T10:36:00Z,29.8672,-93.9310,1.784,1111122 
TCOON,ioos:station:TCOON:524:1,2014-01-04T11:06:00Z,29.8672,-93.9310,1.807,1111122 
TCOON,ioos:station:TCOON:524:1,2014-01-04T11:36:00Z,29.8672,-93.9310,1.832,1111122 
TCOON,ioos:station:TCOON:524:1,2014-01-04T12:06:00Z,29.8672,-93.9310,1.816,1111122 
TCOON,ioos:station:TCOON:524:1,2014-01-04T12:36:00Z,29.8672,-93.9310,1.809,1111122 
TCOON,ioos:station:TCOON:524:1,2014-01-04T13:06:00Z,29.8672,-93.9310,1.793,1111122 
TCOON,ioos:station:TCOON:524:1,2014-01-04T13:36:00Z,29.8672,-93.9310,1.782,1111122 
TCOON,ioos:station:TCOON:524:1,2014-01-04T14:06:00Z,29.8672,-93.9310,1.742,1111122 
TCOON,ioos:station:TCOON:524:1,2014-01-04T14:36:00Z,29.8672,-93.9310,1.73,1111122 
TCOON,ioos:station:TCOON:524:1,2014-01-04T15:06:00Z,29.8672,-93.9310,1.594,1111122 
TCOON,ioos:station:TCOON:524:1,2014-01-04T15:36:00Z,29.8672,-93.9310,1.618,1111122 
TCOON,ioos:station:TCOON:524:1,2014-01-04T16:06:00Z,29.8672,-93.9310,1.638,1111122 
TCOON,ioos:station:TCOON:524:1,2014-01-04T16:36:00Z,29.8672,-93.9310,1.602,1111122 
TCOON,ioos:station:TCOON:524:1,2014-01-04T17:06:00Z,29.8672,-93.9310,1.558,1111122 
TCOON,ioos:station:TCOON:524:1,2014-01-04T17:36:00Z,29.8672,-93.9310,1.545,1111122 
TCOON,ioos:station:TCOON:524:1,2014-01-04T18:06:00Z,29.8672,-93.9310,1.517,1111122 
TCOON,ioos:station:TCOON:524:1,2014-01-04T18:48:00Z,29.8672,-93.9310,1.549,1111122 
TCOON,ioos:station:TCOON:524:1,2014-01-04T19:06:00Z,29.8672,-93.9310,1.497,1111122 
TCOON,ioos:station:TCOON:524:1,2014-01-04T19:36:00Z,29.8672,-93.9310,1.53,1111122 
TCOON,ioos:station:TCOON:524:1,2014-01-04T20:06:00Z,29.8672,-93.9310,1.549,1111122 
TCOON,ioos:station:TCOON:524:1,2014-01-04T20:36:00Z,29.8672,-93.9310,1.518,1111122 
TCOON,ioos:station:TCOON:524:1,2014-01-04T21:06:00Z,29.8672,-93.9310,1.589,1111122 
TCOON,ioos:station:TCOON:524:1,2014-01-04T21:36:00Z,29.8672,-93.9310,1.582,1111122 
TCOON,ioos:station:TCOON:524:1,2014-01-04T22:06:00Z,29.8672,-93.9310,1.576,1111122 
TCOON,ioos:station:TCOON:524:1,2014-01-04T22:36:00Z,29.8672,-93.9310,1.61,1111122 
TCOON,ioos:station:TCOON:524:1,2014-01-04T23:06:00Z,29.8672,-93.9310,1.616,1111122 
TCOON,ioos:station:TCOON:524:1,2014-01-04T23:36:00Z,29.8672,-93.9310,1.646,1111122 
TCOON,ioos:station:TCOON:524:1,2014-01-05T00:06:00Z,29.8672,-93.9310,1.673,1111122 
TCOON,ioos:station:TCOON:524:1,2014-01-05T00:36:00Z,29.8672,-93.9310,1.715,1111122 
TCOON,ioos:station:TCOON:524:1,2014-01-05T01:06:00Z,29.8672,-93.9310,1.743,1111122 
TCOON,ioos:station:TCOON:524:1,2014-01-05T01:36:00Z,29.8672,-93.9310,1.739,1111122 
TCOON,ioos:station:TCOON:524:1,2014-01-05T02:06:00Z,29.8672,-93.9310,1.756,1111122 
TCOON,ioos:station:TCOON:524:1,2014-01-05T02:36:00Z,29.8672,-93.9310,1.73,1111122 
TCOON,ioos:station:TCOON:524:1,2014-01-05T03:06:00Z,29.8672,-93.9310,1.792,1111122 
TCOON,ioos:station:TCOON:524:1,2014-01-05T03:36:00Z,29.8672,-93.9310,1.764,1111122 
TCOON,ioos:station:TCOON:524:1,2014-01-05T04:06:00Z,29.8672,-93.9310,1.752,1111122 
TCOON,ioos:station:TCOON:524:1,2014-01-05T04:36:00Z,29.8672,-93.9310,1.769,1111122 
TCOON,ioos:station:TCOON:524:1,2014-01-05T05:06:00Z,29.8672,-93.9310,1.752,1111122 
TCOON,ioos:station:TCOON:524:1,2014-01-05T05:54:00Z,29.8672,-93.9310,1.756,1111122 
TCOON,ioos:station:TCOON:524:1,2014-01-05T06:36:00Z,29.8672,-93.9310,1.719,1111122 
TCOON,ioos:station:TCOON:524:1,2014-01-05T07:06:00Z,29.8672,-93.9310,1.731,1111122 
TCOON,ioos:station:TCOON:524:1,2014-01-05T07:30:00Z,29.8672,-93.9310,1.727,1111122 
TCOON,ioos:station:TCOON:524:1,2014-01-05T08:06:00Z,29.8672,-93.9310,1.696,1111122 
TCOON,ioos:station:TCOON:524:1,2014-01-05T08:36:00Z,29.8672,-93.9310,1.721,1111122 
TCOON,ioos:station:TCOON:524:1,2014-01-05T09:06:00Z,29.8672,-93.9310,1.715,1111122 
TCOON,ioos:station:TCOON:524:1,2014-01-05T09:36:00Z,29.8672,-93.9310,1.74,1111122 
TCOON,ioos:station:TCOON:524:1,2014-01-05T10:06:00Z,29.8672,-93.9310,1.683,1111122 
TCOON,ioos:station:TCOON:524:1,2014-01-05T10:36:00Z,29.8672,-93.9310,1.744,1111122 
TCOON,ioos:station:TCOON:524:1,2014-01-05T11:06:00Z,29.8672,-93.9310,1.704,1111122 
TCOON,ioos:station:TCOON:524:1,2014-01-05T11:36:00Z,29.8672,-93.9310,1.731,1111122 
TCOON,ioos:station:TCOON:524:1,2014-01-05T12:06:00Z,29.8672,-93.9310,1.723,1111122 
TCOON,ioos:station:TCOON:524:1,2014-01-05T12:30:00Z,29.8672,-93.9310,1.723,1111122 
TCOON,ioos:station:TCOON:524:1,2014-01-05T13:06:00Z,29.8672,-93.9310,1.715,1111122 
TCOON,ioos:station:TCOON:524:1,2014-01-05T13:36:00Z,29.8672,-93.9310,1.722,1111122 
TCOON,ioos:station:TCOON:524:1,2014-01-05T14:06:00Z,29.8672,-93.9310,1.721,1111122 
TCOON,ioos:station:TCOON:524:1,2014-01-05T14:36:00Z,29.8672,-93.9310,1.727,1111122 
TCOON,ioos:station:TCOON:524:1,2014-01-05T15:06:00Z,29.8672,-93.9310,1.769,1111122 
TCOON,ioos:station:TCOON:524:1,2014-01-05T15:36:00Z,29.8672,-93.9310,1.66,1111122 
TCOON,ioos:station:TCOON:524:1,2014-01-05T16:06:00Z,29.8672,-93.9310,1.636,1111122 
TCOON,ioos:station:TCOON:524:1,2014-01-05T16:42:00Z,29.8672,-93.9310,1.604,1111122 
TCOON,ioos:station:TCOON:524:1,2014-01-05T17:06:00Z,29.8672,-93.9310,1.57,1111122 
TCOON,ioos:station:TCOON:524:1,2014-01-05T17:36:00Z,29.8672,-93.9310,1.55,1111122 
TCOON,ioos:station:TCOON:524:1,2014-01-05T18:06:00Z,29.8672,-93.9310,1.499,1111122 
TCOON,ioos:station:TCOON:524:1,2014-01-05T18:36:00Z,29.8672,-93.9310,1.446,1111122 
TCOON,ioos:station:TCOON:524:1,2014-01-05T19:06:00Z,29.8672,-93.9310,1.469,1111122 
TCOON,ioos:station:TCOON:524:1,2014-01-05T19:36:00Z,29.8672,-93.9310,1.409,1111122 
TCOON,ioos:station:TCOON:524:1,2014-01-05T20:06:00Z,29.8672,-93.9310,1.422,1111122 
TCOON,ioos:station:TCOON:524:1,2014-01-05T20:36:00Z,29.8672,-93.9310,1.397,1111122 
TCOON,ioos:station:TCOON:524:1,2014-01-05T21:06:00Z,29.8672,-93.9310,1.363,1111122 
TCOON,ioos:station:TCOON:524:1,2014-01-05T21:36:00Z,29.8672,-93.9310,1.386,1111122 
TCOON,ioos:station:TCOON:524:1,2014-01-05T22:06:00Z,29.8672,-93.9310,1.43,1111122 
TCOON,ioos:station:TCOON:524:1,2014-01-05T22:36:00Z,29.8672,-93.9310,1.342,1111122 
TCOON,ioos:station:TCOON:524:1,2014-01-05T23:06:00Z,29.8672,-93.9310,1.383,1111122 
TCOON,ioos:station:TCOON:524:1,2014-01-05T23:36:00Z,29.8672,-93.9310,1.331,1111122 
TCOON,ioos:station:TCOON:524:1,2014-01-06T00:06:00Z,29.8672,-93.9310,1.353,1111122 
TCOON,ioos:station:TCOON:524:1,2014-01-06T00:36:00Z,29.8672,-93.9310,1.347,1111122 
TCOON,ioos:station:TCOON:524:1,2014-01-06T01:06:00Z,29.8672,-93.9310,1.363,1111122 
TCOON,ioos:station:TCOON:524:1,2014-01-06T01:36:00Z,29.8672,-93.9310,1.393,1111122 
TCOON,ioos:station:TCOON:524:1,2014-01-06T02:06:00Z,29.8672,-93.9310,1.377,1111122 
TCOON,ioos:station:TCOON:524:1,2014-01-06T02:36:00Z,29.8672,-93.9310,1.348,1111122 
TCOON,ioos:station:TCOON:524:1,2014-01-06T03:06:00Z,29.8672,-93.9310,1.323,1111122 
TCOON,ioos:station:TCOON:524:1,2014-01-06T03:36:00Z,29.8672,-93.9310,1.285,1111122 
TCOON,ioos:station:TCOON:524:1,2014-01-06T04:06:00Z,29.8672,-93.9310,1.254,1111122 
TCOON,ioos:station:TCOON:524:1,2014-01-06T04:36:00Z,29.8672,-93.9310,1.244,1111122 
TCOON,ioos:station:TCOON:524:1,2014-01-06T05:06:00Z,29.8672,-93.9310,1.186,1111122 
TCOON,ioos:station:TCOON:524:1,2014-01-06T05:54:00Z,29.8672,-93.9310,1.139,1111122 
TCOON,ioos:station:TCOON:524:1,2014-01-06T06:36:00Z,29.8672,-93.9310,1.132,1111122 
TCOON,ioos:station:TCOON:524:1,2014-01-06T07:06:00Z,29.8672,-93.9310,1.083,1111122 
TCOON,ioos:station:TCOON:524:1,2014-01-06T07:36:00Z,29.8672,-93.9310,1.008,1111122 
TCOON,ioos:station:TCOON:524:1,2014-01-06T08:00:00Z,29.8672,-93.9310,0.998,1111122 
TCOON,ioos:station:TCOON:524:1,2014-01-06T08:36:00Z,29.8672,-93.9310,0.996,1111122 
TCOON,ioos:station:TCOON:524:1,2014-01-06T09:06:00Z,29.8672,-93.9310,0.985,1111122 
TCOON,ioos:station:TCOON:524:1,2014-01-06T09:36:00Z,29.8672,-93.9310,0.978,1111122 
TCOON,ioos:station:TCOON:524:1,2014-01-06T10:06:00Z,29.8672,-93.9310,0.918,1111122 
TCOON,ioos:station:TCOON:524:1,2014-01-06T10:36:00Z,29.8672,-93.9310,0.95,1111122 
TCOON,ioos:station:TCOON:524:1,2014-01-06T11:06:00Z,29.8672,-93.9310,0.98,1111122 
TCOON,ioos:station:TCOON:524:1,2014-01-06T11:36:00Z,29.8672,-93.9310,0.974,1111122 
TCOON,ioos:station:TCOON:524:1,2014-01-06T12:06:00Z,29.8672,-93.9310,0.988,1111122 
TCOON,ioos:station:TCOON:524:1,2014-01-06T12:36:00Z,29.8672,-93.9310,0.992,1111122 
TCOON,ioos:station:TCOON:524:1,2014-01-06T13:06:00Z,29.8672,-93.9310,0.982,1111122 
TCOON,ioos:station:TCOON:524:1,2014-01-06T13:36:00Z,29.8672,-93.9310,0.991,1111122 
TCOON,ioos:station:TCOON:524:1,2014-01-06T14:06:00Z,29.8672,-93.9310,0.982,1111122 
TCOON,ioos:station:TCOON:524:1,2014-01-06T14:36:00Z,29.8672,-93.9310,0.981,1111122 
TCOON,ioos:station:TCOON:524:1,2014-01-06T15:06:00Z,29.8672,-93.9310,0.994,1111122 
TCOON,ioos:station:TCOON:524:1,2014-01-06T15:36:00Z,29.8672,-93.9310,1.014,1111122 
TCOON,ioos:station:TCOON:524:1,2014-01-06T16:06:00Z,29.8672,-93.9310,1.003,1111122 
TCOON,ioos:station:TCOON:524:1,2014-01-06T16:36:00Z,29.8672,-93.9310,0.971,1111122 
TCOON,ioos:station:TCOON:524:1,2014-01-06T17:06:00Z,29.8672,-93.9310,0.945,1111122 
TCOON,ioos:station:TCOON:524:1,2014-01-06T17:36:00Z,29.8672,-93.9310,0.918,1111122 
TCOON,ioos:station:TCOON:524:1,2014-01-06T18:06:00Z,29.8672,-93.9310,0.91,1111122 
TCOON,ioos:station:TCOON:524:1,2014-01-06T18:30:00Z,29.8672,-93.9310,0.932,1111122 
TCOON,ioos:station:TCOON:524:1,2014-01-06T19:06:00Z,29.8672,-93.9310,0.92,1111122 
TCOON,ioos:station:TCOON:524:1,2014-01-06T19:36:00Z,29.8672,-93.9310,0.931,1111122 
TCOON,ioos:station:TCOON:524:1,2014-01-06T20:06:00Z,29.8672,-93.9310,0.945,1111122 
TCOON,ioos:station:TCOON:524:1,2014-01-06T20:36:00Z,29.8672,-93.9310,0.947,1111122 
TCOON,ioos:station:TCOON:524:1,2014-01-06T21:06:00Z,29.8672,-93.9310,0.93,1111122 
TCOON,ioos:station:TCOON:524:1,2014-01-06T21:54:00Z,29.8672,-93.9310,0.931,1111122 
TCOON,ioos:station:TCOON:524:1,2014-01-06T22:06:00Z,29.8672,-93.9310,0.937,1111122 
TCOON,ioos:station:TCOON:524:1,2014-01-06T23:06:00Z,29.8672,-93.9310,0.997,1111122 
TCOON,ioos:station:TCOON:524:1,2014-01-06T23:36:00Z,29.8672,-93.9310,1.019,1111122 
TCOON,ioos:station:TCOON:524:1,2014-01-07T00:06:00Z,29.8672,-93.9310,1.044,1111122 
TCOON,ioos:station:TCOON:524:1,2014-01-07T00:36:00Z,29.8672,-93.9310,1.048,1111122 
TCOON,ioos:station:TCOON:524:1,2014-01-07T01:06:00Z,29.8672,-93.9310,1.027,1111122 
TCOON,ioos:station:TCOON:524:1,2014-01-07T01:36:00Z,29.8672,-93.9310,1.084,1111122 
TCOON,ioos:station:TCOON:524:1,2014-01-07T02:06:00Z,29.8672,-93.9310,1.13,1111122 
TCOON,ioos:station:TCOON:524:1,2014-01-07T02:36:00Z,29.8672,-93.9310,1.126,1111122 
TCOON,ioos:station:TCOON:524:1,2014-01-07T03:06:00Z,29.8672,-93.9310,1.154,1111122 
TCOON,ioos:station:TCOON:524:1,2014-01-07T03:36:00Z,29.8672,-93.9310,1.15,1111122 
TCOON,ioos:station:TCOON:524:1,2014-01-07T04:06:00Z,29.8672,-93.9310,1.165,1111122 
TCOON,ioos:station:TCOON:524:1,2014-01-07T04:36:00Z,29.8672,-93.9310,1.179,1111122 
TCOON,ioos:station:TCOON:524:1,2014-01-07T05:06:00Z,29.8672,-93.9310,1.183,1111122 
TCOON,ioos:station:TCOON:524:1,2014-01-07T05:54:00Z,29.8672,-93.9310,1.189,1111122 
TCOON,ioos:station:TCOON:524:1,2014-01-07T06:36:00Z,29.8672,-93.9310,1.169,1111122 